This is the latest recevied weather packets stored in our database for station/object AB8Y-13. If no packets are shown the sender has not sent any weather packets the latest 10 day(s).
| Time | Temp. | Humidity | Pressure | Rain* | Wind** | Luminosity | Snow |
|---|---|---|---|---|---|---|---|
| 1777786398 | 1.67° C | 72% | 1015.3 hPa | 0 mm | - | 0 W/m² | - |
| 1777786094 | 2.22° C | 71% | 1015.1 hPa | 0 mm | - | 0 W/m² | - |
| 1777785791 | 2.22° C | 65% | 1015.3 hPa | 0 mm | - | 0 W/m² | - |
| 1777785487 | 2.22° C | 68% | 1015.3 hPa | 0 mm | - | 0 W/m² | - |
| 1777785183 | 2.22° C | 69% | 1015.2 hPa | 0 mm | - | 0 W/m² | - |
| 1777784880 | 2.22° C | 72% | 1015.1 hPa | 0 mm | - | 0 W/m² | - |
| 1777784576 | 2.22° C | 71% | 1015.2 hPa | 0 mm | - | 0 W/m² | - |
| 1777784274 | 2.22° C | 72% | 1015.3 hPa | 0 mm | - | 0 W/m² | - |
| 1777783972 | 2.22° C | 70% | 1015.3 hPa | 0 mm | - | 0 W/m² | - |
| 1777783668 | 2.78° C | 70% | 1015.3 hPa | 0 mm | - | 0 W/m² | - |
| 1777783365 | 2.78° C | 71% | 1015.4 hPa | 0 mm | - | 0 W/m² | - |
| 1777783063 | 2.22° C | 68% | 1015.3 hPa | 0 mm | - | 0 W/m² | - |
| 1777782759 | 2.78° C | 68% | 1015.5 hPa | 0 mm | - | 0 W/m² | - |
| 1777782455 | 2.78° C | 65% | 1015.2 hPa | 0 mm | - | 0 W/m² | - |
| 1777782152 | 3.33° C | 63% | 1015.2 hPa | 0 mm | - | 0 W/m² | - |
| 1777781848 | 2.78° C | 65% | 1015.5 hPa | 0 mm | - | 0 W/m² | - |
| 1777781546 | 2.78° C | 64% | 1015.3 hPa | 0 mm | - | 0 W/m² | - |
| 1777781244 | 3.33° C | 64% | 1015.4 hPa | 0 mm | - | 0 W/m² | - |
| 1777780941 | 3.89° C | 63% | 1015.4 hPa | 0 mm | - | 0 W/m² | - |
| 1777780637 | 3.89° C | 62% | 1015.4 hPa | 0 mm | - | 0 W/m² | - |
| 1777780335 | 3.89° C | 60% | 1015.3 hPa | 0 mm | - | 0 W/m² | - |
| 1777780032 | 3.89° C | 60% | 1015.3 hPa | 0 mm | - | 0 W/m² | - |
| 1777779729 | 3.89° C | 62% | 1015.5 hPa | 0 mm | - | 0 W/m² | - |
| 1777779427 | 3.89° C | 60% | 1015.6 hPa | 0 mm | - | 0 W/m² | - |
| 1777779124 | 4.44° C | 61% | 1015.6 hPa | 0 mm | - | 0 W/m² | - |
* Rain latest hour (hover to see other rain measurements)
** Current wind speed in m/s (hover to see current wind gust speed)